Regional Weather Roundup
Issued by NWS

Home | Current Version | Previous Version | Text Only | Print | Product List | Glossary Off
Versions: 1 2 3 4 5 6 7 8 9 10 11 12 13 14 15 16 17 18 19 20 21 22 23 24 25 26 27 28 29 30 31 32 33 34 35 36 37 38 39 40 41 42 43 44 45 46 47 48 49 50

159
ASUS44 KJAN 201710
RWRMS

MISSISSIPPI HOURLY WEATHER ROUNDUP
NATIONAL WEATHER SERVICE JACKSON MS
1100 AM CST THU NOV 20 2014

NOTE: "FAIR: INDICATES FEW OR NO CLOUDS BELOW 12,000 FEET WITH NO
SIGNIFICANT WEATHER AND/OR OBSTRUCTIONS TO VISIBILITY.

MSZ001>002-007>008-010>013-018>021-025>028-034>036-201800-
NORTHWEST MISSISSIPPI

CITY           SKY/WX    TMP DP  RH WIND       PRES   REMARKS
CLARKSDALE     FAIR      48  32  53 NE9       30.28F
CLEVELAND      FAIR      50  42  73 E5        30.27S
GREENWOOD      MOSUNNY   54  42  64 SE5       30.26F
GREENVILLE     CLOUDY    52  45  77 N6        30.26F
GRENADA        FAIR      54  41  62 CALM      30.27
OLIVE BRANCH   MOSUNNY   46  30  53 CALM      30.29F
OXFORD         FAIR      50  28  43 N3        30.29F
TUNICA         SUNNY     46  32  57 NE5       30.30F
$$

MSZ003>006-009-014>017-022>024-029>033-037>039-201800-
NORTHEAST MISSISSIPPI

CITY           SKY/WX    TMP DP  RH WIND       PRES   REMARKS
COLUMBUS AFB   SUNNY     56  40  55 CALM      30.27F
CORINTH        FAIR      48  27  43 NW5       30.28F
GOLDN TRIANGLE SUNNY     55  45  67 CALM      30.27F
STARKVILLE       N/A    N/A N/A N/A MISG        N/A
TUPELO         SUNNY     52  36  54 NE8       30.28F
$$

MSZ040-058-201800-
CENTRAL MISSISSIPPI

CITY           SKY/WX    TMP DP  RH WIND       PRES   REMARKS
JACKSON INTL   PTSUNNY   63  47  55 SW7       30.25F
JACKSON HAWKNS PTSUNNY   62  47  57 VRB5      30.25F
MERIDIAN KEY   SUNNY     63  45  51 SW6       30.26F
MERIDIAN NAS   PTSUNNY   61  45  55 CALM      30.27F
RAYMOND        FAIR      64  59  82 W8        30.25F
VICKSBURG      CLOUDY    63  49  60 VRB3      30.25F
$$

MSZ059>079-201800-
SOUTH MISSISSIPPI

CITY           SKY/WX    TMP DP  RH WIND       PRES   REMARKS
BROOKHAVEN     FAIR      64  48  55 CALM      30.27F
HATTIESBURG    SUNNY     66  47  50 SW9       30.29F
MCCOMB         SUNNY     65  47  52 SW9       30.27F
NATCHEZ        MOSUNNY   66  48  52 SW9       30.25F
PINE BELT      SUNNY     64  46  52 SW6       30.29F
$$

MSZ080>082-201800-
COASTAL MISSISSIPPI

CITY           SKY/WX    TMP DP  RH WIND       PRES   REMARKS
BAY ST LOUIS   MOSUNNY   64  43  45 S6        30.30F
BILOXI         MOSUNNY   63  47  55 SW10      30.30F
PASCAGOULA     MOSUNNY   65  42  43 VRB6      30.30F
GULFPORT       MOSUNNY   63  45  51 S7        30.30F
$$



USA.gov is the U.S. government's official web portal to all federal, state and local government web resources and services.